OEFEB LOWZ-LOWL

Flight info

Callsign OEFEB
Flight time N/A
Altitude 10000
Route NANIT DCT TRAUN DCT LIDSI
Aircraft DA42/L-SDFGRY/C

Departure

Time 2026-04-27 13:21
Airport Zell am See Airfield (LOWZ)

Arrival

Time N/A
Airport Linz-Hörsching Airport (LOWL)
Time Latitude Longitude Altitude Speed Heading
2026-04-27 13:07 47.29209 12.78717 549 ft 0 kts 162°
2026-04-27 13:13 47.29195 12.78725 2523 ft 9 kts 141°
2026-04-27 13:13 47.29200 12.78854 2522 ft 16 kts 77°
2026-04-27 13:14 47.29230 12.79025 2519 ft 18 kts 73°
2026-04-27 13:14 47.29262 12.79220 2523 ft 21 kts 76°
2026-04-27 13:14 47.29288 12.79381 2523 ft 9 kts 97°
2026-04-27 13:14 47.29258 12.79405 2522 ft 0 kts 166°
2026-04-27 13:19 47.29239 12.79413 2521 ft 9 kts 162°
2026-04-27 13:19 47.29210 12.79405 2521 ft 0 kts 252°
2026-04-27 13:20 47.29185 12.79252 2518 ft 45 kts 256°
2026-04-27 13:20 47.29058 12.78560 2560 ft 86 kts 256°
2026-04-27 13:21 47.28896 12.77707 2858 ft 90 kts 258°
2026-04-27 13:21 47.28717 12.76753 3156 ft 101 kts 255°
2026-04-27 13:21 47.28525 12.75702 3478 ft 110 kts 257°
2026-04-27 13:21 47.28336 12.74565 3844 ft 112 kts 264°
2026-04-27 13:22 47.28225 12.73395 4204 ft 118 kts 266°
2026-04-27 13:22 47.28124 12.72225 4708 ft 113 kts 267°
2026-04-27 13:22 47.28006 12.71044 5196 ft 115 kts 265°
2026-04-27 13:22 47.27919 12.69866 5644 ft 117 kts 272°
2026-04-27 13:23 47.27871 12.68675 6020 ft 117 kts 271°
2026-04-27 13:23 47.27827 12.67501 6538 ft 117 kts 271°
2026-04-27 13:23 47.27791 12.66303 6992 ft 117 kts 271°
2026-04-27 13:23 47.27764 12.65110 7403 ft 116 kts 271°
2026-04-27 13:24 47.27743 12.63921 7797 ft 117 kts 271°
2026-04-27 13:24 47.27736 12.62735 8191 ft 116 kts 274°
2026-04-27 13:24 47.28076 12.61709 8608 ft 114 kts 320°
2026-04-27 13:24 47.28830 12.61353 8994 ft 119 kts 359°
2026-04-27 13:25 47.29625 12.61754 9371 ft 126 kts 35°
2026-04-27 13:25 47.30262 12.62671 9652 ft 131 kts 45°
2026-04-27 13:25 47.30906 12.63643 9961 ft 134 kts 44°
2026-04-27 13:25 47.31636 12.64683 9970 ft 160 kts 41°
2026-04-27 13:26 47.32480 12.65842 9989 ft 176 kts 41°
2026-04-27 13:26 47.33428 12.67130 9999 ft 193 kts 41°
2026-04-27 13:26 47.34415 12.68459 10001 ft 192 kts 40°
2026-04-27 13:26 47.35406 12.69781 10006 ft 193 kts 40°
2026-04-27 13:27 47.36398 12.71117 10001 ft 190 kts 40°
2026-04-27 13:27 47.37366 12.72428 10003 ft 190 kts 40°
2026-04-27 13:27 47.38341 12.73751 9994 ft 189 kts 41°
2026-04-27 13:27 47.39313 12.75065 10020 ft 192 kts 40°
2026-04-27 13:28 47.40312 12.76409 10008 ft 192 kts 39°
2026-04-27 13:28 47.41278 12.77709 10001 ft 189 kts 40°
2026-04-27 13:28 47.42247 12.79019 9999 ft 188 kts 40°
2026-04-27 13:28 47.43204 12.80315 10005 ft 185 kts 39°
2026-04-27 13:29 47.44150 12.81597 10002 ft 185 kts 40°
2026-04-27 13:29 47.45099 12.82889 10010 ft 186 kts 40°
2026-04-27 13:29 47.46056 12.84185 10014 ft 187 kts 40°
2026-04-27 13:29 47.47010 12.85477 10016 ft 184 kts 39°
2026-04-27 13:30 47.47960 12.86755 10013 ft 185 kts 40°
2026-04-27 13:30 47.48917 12.88060 10001 ft 190 kts 40°
2026-04-27 13:30 47.49903 12.89381 9985 ft 192 kts 40°
2026-04-27 13:30 47.50864 12.90708 10011 ft 190 kts 40°
2026-04-27 13:31 47.51847 12.92047 10022 ft 192 kts 39°
2026-04-27 13:31 47.52820 12.93377 10007 ft 190 kts 39°
2026-04-27 13:31 47.53798 12.94705 9996 ft 191 kts 39°
2026-04-27 13:31 47.54770 12.96028 10004 ft 187 kts 39°
2026-04-27 13:32 47.55721 12.97323 10009 ft 185 kts 39°
2026-04-27 13:32 47.56664 12.98610 10008 ft 183 kts 39°
2026-04-27 13:32 47.57591 12.99871 10016 ft 184 kts 39°
2026-04-27 13:32 47.58540 13.01167 10013 ft 186 kts 39°
2026-04-27 13:33 47.59492 13.02467 10015 ft 186 kts 39°
2026-04-27 13:33 47.60443 13.03766 10014 ft 186 kts 39°
2026-04-27 13:33 47.61403 13.05070 10011 ft 188 kts 39°
2026-04-27 13:33 47.62354 13.06378 10011 ft 185 kts 39°
2026-04-27 13:34 47.63302 13.07678 10015 ft 185 kts 39°
2026-04-27 13:34 47.64245 13.08970 10019 ft 184 kts 39°
2026-04-27 13:34 47.65174 13.10246 10020 ft 179 kts 39°
2026-04-27 13:34 47.66089 13.11495 10025 ft 179 kts 39°
2026-04-27 13:35 47.67011 13.12758 10019 ft 181 kts 39°
2026-04-27 13:35 47.67941 13.14032 10022 ft 182 kts 39°
2026-04-27 13:35 47.68880 13.15318 10010 ft 183 kts 39°
2026-04-27 13:35 47.69823 13.16614 10009 ft 186 kts 39°
2026-04-27 13:36 47.70771 13.17917 10010 ft 187 kts 39°
2026-04-27 13:36 47.71711 13.19212 10023 ft 181 kts 40°
2026-04-27 13:36 47.72628 13.20476 10033 ft 184 kts 39°
2026-04-27 13:36 47.73579 13.21779 10016 ft 184 kts 39°
2026-04-27 13:37 47.74494 13.23041 10025 ft 177 kts 39°
2026-04-27 13:37 47.75408 13.24303 10022 ft 179 kts 39°
2026-04-27 13:37 47.76329 13.25571 10017 ft 181 kts 39°
2026-04-27 13:37 47.77257 13.26849 10019 ft 183 kts 39°
2026-04-27 13:38 47.78191 13.28133 10011 ft 182 kts 39°
2026-04-27 13:38 47.79123 13.29425 10016 ft 184 kts 39°
2026-04-27 13:38 47.80067 13.30722 10016 ft 186 kts 39°
2026-04-27 13:38 47.81008 13.32028 10015 ft 184 kts 39°
2026-04-27 13:39 47.81950 13.33329 10015 ft 184 kts 39°
2026-04-27 13:39 47.82884 13.34627 10023 ft 185 kts 39°
2026-04-27 13:39 47.83826 13.35924 10015 ft 184 kts 39°
2026-04-27 13:39 47.84760 13.37216 10023 ft 182 kts 39°
2026-04-27 13:40 47.85690 13.38507 10003 ft 183 kts 39°
2026-04-27 13:40 47.86605 13.39775 9955 ft 183 kts 39°
2026-04-27 13:40 47.87550 13.41082 9833 ft 186 kts 40°
2026-04-27 13:40 47.88512 13.42413 9734 ft 191 kts 40°
2026-04-27 13:41 47.89484 13.43769 9628 ft 192 kts 40°
2026-04-27 13:41 47.90469 13.45133 9516 ft 194 kts 40°
2026-04-27 13:41 47.91453 13.46507 9417 ft 194 kts 40°
2026-04-27 13:41 47.92441 13.47882 9305 ft 193 kts 40°
2026-04-27 13:42 47.93424 13.49246 9205 ft 193 kts 40°
2026-04-27 13:42 47.94404 13.50610 9103 ft 192 kts 40°
2026-04-27 13:42 47.95380 13.51968 8998 ft 193 kts 40°
2026-04-27 13:42 47.96343 13.53312 8891 ft 191 kts 40°
2026-04-27 13:43 47.97311 13.54660 8794 ft 191 kts 40°
2026-04-27 13:43 47.98285 13.56017 8689 ft 191 kts 40°
2026-04-27 13:43 47.99255 13.57370 8580 ft 190 kts 40°
2026-04-27 13:43 48.00220 13.58718 8483 ft 191 kts 40°
2026-04-27 13:44 48.01189 13.60075 8371 ft 191 kts 39°
2026-04-27 13:44 48.02159 13.61435 8264 ft 191 kts 40°
2026-04-27 13:44 48.03128 13.62785 8180 ft 190 kts 40°
2026-04-27 13:44 48.04099 13.64148 8059 ft 192 kts 40°
2026-04-27 13:45 48.05064 13.65497 7968 ft 189 kts 39°
2026-04-27 13:45 48.06020 13.66838 7855 ft 187 kts 40°
2026-04-27 13:45 48.06971 13.68166 7751 ft 186 kts 40°
2026-04-27 13:45 48.07872 13.69432 7643 ft 183 kts 40°
2026-04-27 13:46 48.08791 13.70717 7544 ft 183 kts 40°
2026-04-27 13:46 48.09718 13.72020 7443 ft 182 kts 40°
2026-04-27 13:46 48.10643 13.73321 7344 ft 182 kts 40°
2026-04-27 13:46 48.11568 13.74621 7247 ft 183 kts 40°
2026-04-27 13:47 48.12488 13.75915 7146 ft 180 kts 40°
2026-04-27 13:47 48.13408 13.77208 7046 ft 181 kts 40°
2026-04-27 13:47 48.14331 13.78501 6943 ft 182 kts 40°
2026-04-27 13:47 48.15248 13.79797 6849 ft 181 kts 41°
2026-04-27 13:48 48.16152 13.81076 6748 ft 181 kts 40°
2026-04-27 13:48 48.17065 13.82364 6641 ft 179 kts 40°
2026-04-27 13:48 48.17972 13.83637 6542 ft 179 kts 40°
2026-04-27 13:48 48.18870 13.84904 6443 ft 177 kts 41°
2026-04-27 13:49 48.19771 13.86176 6328 ft 177 kts 41°
2026-04-27 13:49 48.20677 13.87458 6207 ft 179 kts 41°
2026-04-27 13:49 48.21565 13.88736 6093 ft 177 kts 46°
2026-04-27 13:49 48.22184 13.90327 5990 ft 179 kts 70°
2026-04-27 13:50 48.22398 13.92161 5893 ft 179 kts 85°
2026-04-27 13:50 48.22442 13.94009 5786 ft 176 kts 88°
2026-04-27 13:50 48.22484 13.95849 5686 ft 177 kts 87°
2026-04-27 13:50 48.22537 13.97690 5592 ft 176 kts 86°
2026-04-27 13:51 48.22606 13.99552 5362 ft 181 kts 86°
2026-04-27 13:51 48.22675 14.01447 5114 ft 183 kts 88°
2026-04-27 13:51 48.22739 14.03355 4874 ft 183 kts 87°
2026-04-27 13:51 48.22799 14.05265 4632 ft 183 kts 87°
2026-04-27 13:52 48.22864 14.07167 4390 ft 182 kts 88°
2026-04-27 13:52 48.22928 14.09065 4146 ft 182 kts 86°
2026-04-27 13:52 48.22993 14.10953 4014 ft 178 kts 86°
2026-04-27 13:52 48.23062 14.12769 4014 ft 171 kts 86°
2026-04-27 13:53 48.23192 14.16251 4014 ft 164 kts 86°
2026-04-27 13:53 48.23254 14.17952 4015 ft 163 kts 86°
2026-04-27 13:53 48.23313 14.19643 4011 ft 162 kts 86°
2026-04-27 13:54 48.23374 14.21325 4011 ft 161 kts 86°
2026-04-27 13:54 48.23434 14.23005 4013 ft 161 kts 86°
2026-04-27 13:54 48.23494 14.24686 4012 ft 161 kts 86°
2026-04-27 13:54 48.23555 14.26366 4011 ft 161 kts 86°
2026-04-27 13:55 48.23612 14.28027 4011 ft 161 kts 87°
2026-04-27 13:55 48.23672 14.29707 4011 ft 162 kts 86°
2026-04-27 13:55 48.23731 14.31390 4011 ft 161 kts 86°
2026-04-27 13:55 48.23790 14.33069 4011 ft 162 kts 86°
2026-04-27 13:56 48.23849 14.34754 4011 ft 162 kts 86°
2026-04-27 13:56 48.23822 14.35870 3995 ft 162 kts 103°
2026-04-27 13:56 48.23248 14.37303 4011 ft 161 kts 130°
2026-04-27 13:56 48.22494 14.38561 4010 ft 162 kts 132°
2026-04-27 13:57 48.21731 14.39815 4008 ft 163 kts 132°
2026-04-27 13:57 48.21108 14.41220 3990 ft 164 kts 106°
2026-04-27 13:57 48.21186 14.42888 3987 ft 163 kts 65°
2026-04-27 13:57 48.21967 14.44065 3987 ft 162 kts 24°
2026-04-27 13:58 48.23067 14.44184 3991 ft 161 kts 343°
2026-04-27 13:58 48.23943 14.43195 3990 ft 161 kts 302°
2026-04-27 13:58 48.24187 14.41584 3997 ft 161 kts 268°
2026-04-27 13:58 48.24089 14.39906 4004 ft 161 kts 264°
2026-04-27 13:59 48.23990 14.38232 4002 ft 161 kts 266°
2026-04-27 13:59 48.23916 14.36558 4005 ft 161 kts 267°
2026-04-27 13:59 48.23865 14.34881 4011 ft 160 kts 268°
2026-04-27 13:59 48.23823 14.33206 4006 ft 161 kts 268°
2026-04-27 14:00 48.23826 14.31554 3993 ft 162 kts 282°
2026-04-27 14:00 48.24420 14.30179 4006 ft 160 kts 324°
2026-04-27 14:00 48.25466 14.29749 4010 ft 160 kts
2026-04-27 14:00 48.26440 14.30475 4014 ft 160 kts 47°
2026-04-27 14:01 48.26991 14.31922 4010 ft 160 kts 63°
2026-04-27 14:01 48.27361 14.33501 3980 ft 161 kts 79°
2026-04-27 14:01 48.27363 14.35166 3980 ft 161 kts 101°
2026-04-27 14:01 48.27224 14.36832 3982 ft 161 kts 92°
2026-04-27 14:02 48.27239 14.38515 3984 ft 162 kts 85°
2026-04-27 14:02 48.27329 14.40196 3981 ft 162 kts 84°
2026-04-27 14:02 48.27425 14.41885 3982 ft 162 kts 85°
2026-04-27 14:02 48.27457 14.42454 3982 ft 163 kts 85°